Starlink 11523

operational
NORAD ID: 62565 Int'l Des: 2025-006 Owner: SPXS Country: US Constellation: starlink
LEOCIRCULAR

Starlink 11523について

説明を読み込み中...

リアルタイム位置

3D地球を読み込み中...

次回通過

高度履歴

Altitude vs Time

uPlot chart will show altitude changes over time

軌道要素

1 62565U 25006M 25301.46143446 .00283017 00000-0 21276-2 0 9991
2 62565 42.9994 217.1604 0000789 328.7104 31.3717 15.70920552 45808
Epoch: Oct 28, 2025 • Age: 22 hours

現在のステータス

高度 356.4 km
速度 7.70 km/s
衛星直下点 35.82°N, 93.89°E
打ち上げ日 Jan 10, 2025
運用期間 0.7 years
タイプ internet

技術仕様

分類 Payload
質量 960.00 kg
乾燥質量 910.00 kg
総質量 960.00 kg
長さ 0.30 m
直径 4.10 m
スパン 29.00 m
形状 Box + pan
製造者 SPXS
バスタイプ Starlink V2MD
フェーズステータス In Orbit
所有者/国 SPXS/US

大規模コンステレーション

Loading constellations...